TimeEST,TemperatureF,Dew PointF,Humidity,Sea Level PressureIn,VisibilityMPH,Wind Direction,Wind SpeedMPH,Gust SpeedMPH,PrecipitationIn,Events,Conditions,WindDirDegrees,DateUTC
12:53 AM,46.9,37.9,71,30.20,10.0,Calm,Calm,-,N/A,,Clear,0,2013-11-08 05:53:00
1:53 AM,45.0,37.9,76,30.20,10.0,NNW,3.5,-,N/A,,Clear,340,2013-11-08 06:53:00
2:53 AM,44.1,37.0,76,30.20,10.0,Calm,Calm,-,N/A,,Clear,0,2013-11-08 07:53:00
3:53 AM,42.1,36.0,79,30.22,10.0,NNW,4.6,-,N/A,,Clear,340,2013-11-08 08:53:00
4:53 AM,43.0,35.1,74,30.23,10.0,North,3.5,-,N/A,,Clear,360,2013-11-08 09:53:00
5:53 AM,42.1,35.1,76,30.25,10.0,North,4.6,-,N/A,,Clear,360,2013-11-08 10:53:00
6:53 AM,41.0,34.0,76,30.27,10.0,North,3.5,-,N/A,,Clear,10,2013-11-08 11:53:00
7:53 AM,44.1,35.1,71,30.30,10.0,North,8.1,-,N/A,,Clear,10,2013-11-08 12:53:00
8:53 AM,48.0,35.1,61,30.31,10.0,NNE,10.4,-,N/A,,Clear,30,2013-11-08 13:53:00
9:53 AM,54.0,36.0,51,30.31,10.0,NNE,11.5,17.3,N/A,,Clear,30,2013-11-08 14:53:00
10:53 AM,57.0,35.1,44,30.31,10.0,NE,12.7,-,N/A,,Clear,40,2013-11-08 15:53:00
11:53 AM,61.0,35.1,38,30.31,10.0,NE,15.0,21.9,N/A,,Clear,50,2013-11-08 16:53:00
12:53 PM,63.0,35.1,35,30.27,10.0,NE,10.4,-,N/A,,Clear,40,2013-11-08 17:53:00
1:53 PM,64.9,34.0,32,30.24,10.0,NNE,9.2,17.3,N/A,,Clear,30,2013-11-08 18:53:00
2:53 PM,66.0,33.1,29,30.23,10.0,NE,11.5,-,N/A,,Clear,40,2013-11-08 19:53:00
3:53 PM,64.9,33.1,31,30.22,10.0,NE,10.4,-,N/A,,Clear,50,2013-11-08 20:53:00
4:53 PM,63.0,34.0,34,30.23,10.0,NE,9.2,-,N/A,,Clear,40,2013-11-08 21:53:00
5:53 PM,57.0,36.0,45,30.24,10.0,NE,3.5,-,N/A,,Clear,50,2013-11-08 22:53:00
6:53 PM,52.0,39.9,63,30.25,10.0,Calm,Calm,-,N/A,,Clear,0,2013-11-08 23:53:00
7:53 PM,48.9,39.9,71,30.26,10.0,Calm,Calm,-,N/A,,Clear,0,2013-11-09 00:53:00
8:53 PM,48.9,39.9,71,30.26,10.0,NE,3.5,-,N/A,,Clear,40,2013-11-09 01:53:00
9:53 PM,46.9,39.0,74,30.27,10.0,Calm,Calm,-,N/A,,Clear,0,2013-11-09 02:53:00
10:53 PM,44.1,39.0,82,30.29,10.0,Calm,Calm,-,N/A,,Clear,0,2013-11-09 03:53:00
11:53 PM,43.0,39.0,86,30.29,10.0,Calm,Calm,-,N/A,,Clear,0,2013-11-09 04:53:00